TimeIST,TemperatureF,Dew PointF,Humidity,Sea Level PressureIn,VisibilityMPH,Wind Direction,Wind SpeedMPH,Gust SpeedMPH,PrecipitationIn,Events,Conditions,WindDirDegrees,DateUTC
1:00 AM,42,37,76,30.09,,SW,8.9,,,,,220,2013-04-28 00:00:00
7:00 AM,44,44,100,29.96,1,WNW,15.7,,,Rain,Light Rain,290,2013-04-28 06:00:00
7:00 AM,44.6,44.6,100,29.92,1.2,WNW,15.0,-,N/A,Rain,Light Rain,290,2013-04-28 06:00:00
7:30 AM,44.6,42.8,93,29.92,1.9,WNW,17.3,-,N/A,,Light Drizzle,290,2013-04-28 06:30:00
8:00 AM,44.6,41.0,87,29.92,6.2,WNW,16.1,-,N/A,,Mostly Cloudy,300,2013-04-28 07:00:00
8:30 AM,44.6,41.0,87,29.92,6.2,WNW,15.0,-,N/A,,Light Drizzle,300,2013-04-28 07:30:00
9:00 AM,44.6,39.2,81,29.92,6.2,WNW,16.1,-,N/A,,Mostly Cloudy,290,2013-04-28 08:00:00
9:30 AM,44.6,39.2,81,29.92,6.2,WNW,13.8,-,N/A,,Mostly Cloudy,290,2013-04-28 08:30:00
10:00 AM,44.6,39.2,81,29.92,6.2,WNW,16.1,-,N/A,,Mostly Cloudy,290,2013-04-28 09:00:00
10:30 AM,46.4,39.2,76,29.92,6.2,WNW,18.4,-,N/A,,Mostly Cloudy,290,2013-04-28 09:30:00
11:00 AM,46.4,37.4,71,29.89,6.2,WNW,21.9,33.4,N/A,Rain,Light Rain Showers,290,2013-04-28 10:00:00
11:30 AM,48.2,37.4,66,29.89,6.2,WNW,23.0,-,N/A,,Mostly Cloudy,290,2013-04-28 10:30:00
12:00 PM,48.2,37.4,66,29.89,6.2,WNW,23.0,-,N/A,,Mostly Cloudy,300,2013-04-28 11:00:00
12:30 PM,46.4,37.4,71,29.89,6.2,WNW,26.5,-,N/A,Rain,Light Rain Showers,290,2013-04-28 11:30:00
1:00 PM,46,40,73,29.93,7,WNW,22.4,,,Rain,Light Rain Showers,290,2013-04-28 12:00:00
1:00 PM,46.4,41.0,81,29.89,6.2,WNW,23.0,36.8,N/A,Rain,Light Rain Showers,290,2013-04-28 12:00:00
1:30 PM,46.4,39.2,76,29.89,6.2,WNW,16.1,-,N/A,,Mostly Cloudy,290,2013-04-28 12:30:00
2:00 PM,48.2,37.4,66,29.89,6.2,West,18.4,29.9,N/A,,Mostly Cloudy,280,2013-04-28 13:00:00
2:30 PM,48.2,35.6,62,29.89,6.2,WNW,21.9,33.4,N/A,Rain,Light Rain Showers,290,2013-04-28 13:30:00
3:00 PM,42.8,39.2,87,29.89,6.2,WNW,23.0,34.5,N/A,Rain,Light Rain Showers,300,2013-04-28 14:00:00
3:30 PM,42.8,41.0,93,29.89,6.2,WNW,26.5,41.4,N/A,Rain,Light Rain Showers,290,2013-04-28 14:30:00
4:00 PM,44.6,37.4,76,29.89,6.2,West,19.6,-,N/A,Rain,Light Rain Showers,280,2013-04-28 15:00:00
4:30 PM,46.4,37.4,71,29.89,6.2,WNW,18.4,29.9,N/A,,Mostly Cloudy,290,2013-04-28 15:30:00
5:00 PM,48.2,35.6,62,29.86,6.2,WNW,21.9,-,N/A,,Scattered Clouds,290,2013-04-28 16:00:00
5:30 PM,42.8,39.2,87,29.89,6.2,WNW,28.8,44.9,N/A,Rain,Light Rain Showers,300,2013-04-28 16:30:00
6:00 PM,46.4,32.0,57,29.89,6.2,WNW,23.0,-,N/A,,Scattered Clouds,300,2013-04-28 17:00:00
6:30 PM,46.4,33.8,62,29.89,5.0,WNW,23.0,-,N/A,,Scattered Clouds,290,2013-04-28 17:30:00
7:00 PM,40,35,77,29.93,19,WNW,22.4,,,Snow,Light Snow Showers,300,2013-04-28 18:00:00
7:00 PM,41.0,35.6,81,29.89,6.2,WNW,21.9,41.4,N/A,,Scattered Clouds,300,2013-04-28 18:00:00